This is the latest recevied weather packets stored in our database for station/object WMKP. If no packets are shown the sender has not sent any weather packets the latest 10 day(s).
| Time | Temp. | Humidity | Pressure | Rain* | Wind** | Luminosity | Snow |
|---|---|---|---|---|---|---|---|
| 1778058628 | 28.89° C | 74% | 1005 hPa | - | - | - | - |
| 1778056808 | 28.89° C | 74% | 1005 hPa | - | - | - | - |
| 1778055027 | 30° C | 70% | 1006 hPa | - | - | - | - |
| 1778053208 | 30° C | 70% | 1006 hPa | - | - | - | - |
| 1778051434 | 30.56° C | 66% | 1006 hPa | - | - | - | - |
| 1778049611 | 30.56° C | 70% | 1007 hPa | - | - | - | - |
| 1778047826 | 30.56° C | 66% | 1007 hPa | - | - | - | - |
| 1778046008 | 30.56° C | 70% | 1008 hPa | - | - | - | - |
| 1778044227 | 30.56° C | 74% | 1008 hPa | - | - | - | - |
| 1778042408 | 30° C | 74% | 1009 hPa | - | - | - | - |
| 1778040627 | 30° C | 74% | 1009 hPa | - | - | - | - |
| 1778038807 | 30° C | 74% | 1009 hPa | - | - | - | - |
| 1778037032 | 30° C | 74% | 1009 hPa | - | - | - | - |
| 1778035211 | 30° C | 74% | 1009 hPa | - | - | - | - |
| 1778033425 | 30° C | 79% | 1009 hPa | - | - | - | - |
| 1778031607 | 27.78° C | 83% | 1009 hPa | - | - | - | - |
| 1778030402 | 27.78° C | 83% | 1008 hPa | - | - | - | - |
| 1778029826 | 27.78° C | 83% | 1008 hPa | - | - | - | - |
| 1778028009 | 26.67° C | 88% | 1008 hPa | - | - | - | - |
| 1778026227 | 25.56° C | 88% | 1008 hPa | - | - | - | - |
| 1778024407 | 25° C | 94% | 1008 hPa | - | - | - | - |
| 1778022625 | 25° C | 94% | 1007 hPa | - | - | - | - |
| 1778020815 | 25° C | 88% | 1007 hPa | - | - | - | - |
| 1778019035 | 25° C | 88% | 1007 hPa | - | - | - | - |
| 1778017207 | 25° C | 88% | 1007 hPa | - | - | - | - |
* Rain since midnight (hover to see other rain measurements)
** Current wind speed in m/s (hover to see current wind gust speed)